Regional Weather Roundup
Issued by NWS Cleveland, OH

Home | Current Version | Previous Version | Graphics & Text | Print | Product List | Glossary On
Versions: 1 2 3 4 5 6 7 8 9 10 11 12 13 14 15 16 17 18 19 20 21 22 23 24 25 26 27 28 29 30 31 32 33 34 35 36 37 38 39 40 41 42 43 44 45 46 47 48 49 50
000
ASUS41 KCLE 252110
RWRCLE
OHIO REGIONAL WEATHER ROUNDUP
NATIONAL WEATHER SERVICE CLEVELAND, OH
500 PM EDT SAT MAR 25 2017

NOTE: "FAIR" INDICATES FEW OR NO CLOUDS BELOW 12,000 FEET WITH NO
SIGNIFICANT WEATHER AND/OR OBSTRUCTIONS TO VISIBILITY.

OHZ001>008-015>018-024>027-034-035-043-044-252200-
   NORTHWEST OHIO

CITY           SKY/WX    TMP DP  RH WIND       PRES   REMARKS
DEFIANCE       CLOUDY    49  41  74 E15       30.10R
FINDLAY        PTSUNNY   57  44  62 NE16      30.08F
TOLEDO EXPRESS CLOUDY    41  37  86 E16G24    30.14F
TOLEDO EXEC    CLOUDY    42  38  85 NE13      30.16F
LIMA           MOSUNNY   73  53  49 SE10      30.04F
$$

OHZ009>014-019>023-028>033-038-089-252200-
   NORTHEAST OHIO

CITY           SKY/WX    TMP DP  RH WIND       PRES   REMARKS
CLE-HOPKINS    CLOUDY    49  38  65 N12       30.17S
CLE-LAKEFRONT  CLOUDY    41  38  89 NE18      30.15S
CUY CO. ARPT   CLOUDY    55  45  67 NE12      30.16S
LORAIN-ELYRIA  PTSUNNY   50  41  71 NE10      30.14S
ASHTABULA      CLOUDY    48  39  71 N9        30.19F
AKRON-CANTON   CLOUDY    71  52  50 SE6       30.12S
WOOSTER        CLOUDY    69  53  56 E9        30.11F
MANSFIELD      PTSUNNY   67  53  61 NE8G16    30.10S
YOUNGSTOWN     CLOUDY    62  49  62 NE7       30.15F
$$

OHZ042-051>053-060>062-070>072-077>081-252200-
  SOUTHWEST OHIO

CITY           SKY/WX    TMP DP  RH WIND       PRES   REMARKS
CINC-COVINGTON CLOUDY    74  51  44 S18       30.02F
CINC-LUNKEN    CLOUDY    74  53  48 S15G22    30.03F
HAMILTON       MOSUNNY   76  51  41 S8G16     30.03S
DAYTON         CLOUDY    73  50  44 S10       30.04F
WRIGHT-PAT AFB MOSUNNY   73  50  43 SE12      30.04F
DAYTON GENERAL MOSUNNY   74  51  44 SE15      30.03F
WILMINGTON     CLOUDY    71  53  52 SE12      30.06F
$$

OHZ036-037-039>041-045>050-054>059-063>069-073>076-082>088-252200-
  CENTRAL AND SOUTHEAST OHIO

CITY           SKY/WX    TMP DP  RH WIND       PRES   REMARKS
COLUMBUS       CLOUDY    74  51  44 S9        30.07F
OSU AIRPORT    MOSUNNY   73  52  47 S12       30.07F
BOLTON FIELD   SUNNY     73  52  46 S8        30.08F
RICKENBACK AFB MOSUNNY   73  51  44 S12       30.07F
NEWARK         CLOUDY    74  51  44 S6        30.08F
MARION         CLOUDY    73  51  46 S8        30.08F
LANCASTER      CLOUDY    76  51  41 S9        30.09F
ZANESVILLE     CLOUDY    74  49  41 CALM      30.09F
NEW PHILLY     NOT AVBL
$$



USA.gov is the U.S. government's official web portal to all federal, state and local government web resources and services.